BANGABANDHUSAT-1        
1 43463U 18044A   19266.46294840 -.00000373  00000-0  00000+0 0  9991
2 43463   0.0158 157.9795 0002036  33.2512  96.5656  1.00271648  5074
FALCON 9 R/B            
1 43464U 18044B   19263.86256771  .00000197  00000-0  32384-3 0  9991
2 43464  18.7667 168.0670 7235549 180.0639 179.7848  2.30480860 11454